Airfield :
LOGIN :

Register | Disclaimer

   EN    FR    IT 

 










Legend :    VFR   Marginal VFR   IFR   Intensive IFR   Very Intensive IFR
Visi :
Ceiling :
>= 8 km
>= 3000ft
5 to 8 km
1000 to 3000 ft
1500m to 5 km
500 to 1000 ft
800 to 1500m
200 to 500 ft
< 800m
< 200 ft
Symbols :   Thunderstorms  Fog  Heavy snow  Heavy precipitations  Wind > 20 kt
SIGMETs :     Misc.  Thunderstorms  Icing  Turbulence  Mountain Waves  Volcanic Ashes







- Airport Elevation : 325 ft
- IATA code : POX
- Download approach charts


LFPT - Pontoise

CURRENT METAR :
  • 112030Z AUTO 08005KT 6000 BKN043 04/03 Q1024

EXPIRED METARs :
  • 112000Z AUTO 09004KT 7000 OVC041 05/04 Q1024
  • 111930Z AUTO 09004KT 6000 BKN038 05/04 Q1024
  • 111900Z AUTO 09003KT 6000 FEW027 SCT038 BKN045 04/04 Q1024
  • 111830Z AUTO 10003KT 6000 OVC045 05/04 Q1024
  • 111800Z AUTO 08005KT 6000 BKN046 04/03 Q1024

TAF N/A
ATIS : +33 1 30 30 52 08
No reported NOTAMs for that airfield.



MET'MAP, your aeronautical weather chart ! - Copyright ORBIFLY December 2007 - Disclaimer

ORBIFLY MET'MAP TEAM :

Programming & Development : Alexandra Zaïnal
Concept & Development : Baudouin d'Aumeries
Co-Development & Prog : Marc-Olivier Méhu
Technical & hardware support : Manuel Goepfert

Contact : metmap@orbifly.com




SOURCES & CREDITS :

   NOAA